Methuen, Massachusetts, United States (01844)
Lat: 42.73N, Lon: 71.19W
Wx Zone: MAZ006
Local Info
Past Weather Observations for Friday, December 19, 2014

NOTE: This archive is for the closest National Weather Service station to Methuen. Information may differ from the station used for current weather conditions.

Click here for Long-term Archive

Time Weather Temperature Dewpoint Humidity Pressure Winds Precip Visibility
23:54
Clear
27°F / -3°C 19°F / -7°C 74% 30.15 in
(1021 mb)
NNW 3.5 mph
(NNW 6 kph)
- 10SM
22:54
Clear
27°F / -3°C 19°F / -7°C 74% 30.15 in
(1021 mb)
NNW 4.6 mph
(NNW 7 kph)
- 10SM
21:54
Clear
27°F / -3°C 19°F / -7°C 74% 30.15 in
(1021 mb)
NW 3.5 mph
(NW 6 kph)
- 10SM
20:54
Clear
28°F / -2°C 19°F / -7°C 69% 30.12 in
(1020 mb)
NNW 4.6 mph
(NNW 7 kph)
- 10SM
19:54
Clear
28°F / -2°C 19°F / -7°C 69% 30.09 in
(1019 mb)
Variable 4.6 mph
(Variable 7 kph)
- 10SM
18:54
Clear
28°F / -2°C 19°F / -7°C 69% 30.09 in
(1019 mb)
WNW 9.2 mph
(WNW 15 kph)
- 10SM
17:54
Clear
30°F / -1°C 19°F / -7°C 64% 30.06 in
(1018 mb)
WNW 9.2 mph
(WNW 15 kph)
- 10SM
16:54
Partly Cloudy
30°F / -1°C 21°F / -6°C 69% 30.04 in
(1017 mb)
WNW 9.2 mph
(WNW 15 kph)
- 10SM
15:54
Clear
32°F / 0°C 21°F / -6°C 64% 30.01 in
(1016 mb)
NW 10.4 mph
(NW 17 kph)
- 10SM
14:54
Mostly Cloudy
34°F / 1°C 21°F / -6°C 60% 30.01 in
(1016 mb)
NW 9.2 mph
(NW 15 kph)
- 10SM
13:54
Overcast
34°F / 1°C 23°F / -5°C 65% 29.98 in
(1015 mb)
WNW 9.2 mph
(WNW 15 kph)
- 10SM
12:54
Mostly Cloudy
36°F / 2°C 23°F / -5°C 60% 29.98 in
(1015 mb)
NW 9.2 mph
(NW 15 kph)
- 10SM
11:54
Overcast
34°F / 1°C 21°F / -6°C 60% 29.95 in
(1014 mb)
WNW 9.2 mph
(WNW 15 kph)
- 10SM
11:43
Overcast
34°F / 1°C 21°F / -6°C 60% 29.98 in
(1015 mb)
NW 11.5 mph
(NW 19 kph)
- 10SM
10:54
Overcast
34°F / 1°C 21°F / -6°C 60% 29.98 in
(1015 mb)
NW 11.5 mph
(NW 19 kph)
- 10SM
10:49
Overcast
34°F / 1°C 21°F / -6°C 60% 29.98 in
(1015 mb)
NW 10.4 mph
(NW 17 kph)
- 10SM
09:54
Overcast
34°F / 1°C 21°F / -6°C 60% 29.98 in
(1015 mb)
NW 11.5 mph
(NW 19 kph)
- 10SM
08:54
Overcast
32°F / 0°C 21°F / -6°C 64% 29.95 in
(1014 mb)
NW 15 mph
(NW 24 kph)
- 10SM
07:54
Overcast
32°F / 0°C 21°F / -6°C 64% 29.95 in
(1014 mb)
NW 10.4 mph
(NW 17 kph)
- 10SM
06:54
Overcast
32°F / 0°C 21°F / -6°C 64% 29.92 in
(1013 mb)
NW 8.1 mph
(NW 13 kph)
- 10SM
05:54
Clear
30°F / -1°C 21°F / -6°C 69% 29.92 in
(1013 mb)
WNW 5.8 mph
(WNW 9 kph)
- 10SM
04:54
Mostly Cloudy
32°F / 0°C 23°F / -5°C 69% 29.89 in
(1012 mb)
W 5.8 mph
(W 9 kph)
- 10SM
03:54
Overcast
32°F / 0°C 23°F / -5°C 69% 29.89 in
(1012 mb)
NW 9.2 mph
(NW 15 kph)
- 10SM
02:54
Clear
32°F / 0°C 23°F / -5°C 69% 29.89 in
(1012 mb)
NW 6.9 mph
(NW 11 kph)
- 10SM
01:54
Partly Cloudy
34°F / 1°C 25°F / -4°C 70% 29.89 in
(1012 mb)
NW 8.1 mph
(NW 13 kph)
- 10SM
00:54
Partly Cloudy
34°F / 1°C 25°F / -4°C 70% 29.86 in
(1011 mb)
NW 11.5 mph
(NW 19 kph)
- 10SM
Time Weather Temperature Dewpoint Humidity Pressure Winds Precip Visibility


Weather for websites

WeatherForYou.com, LLC is not responsible for any damages or problems caused by this service. Current weather conditions are obtained from the closest station including government and personal stations which may have varying degrees of accuracy. Weather forecasts are derived from the NOAA NDFD. Like all things, this site belongs to Jesus Christ... He just trusts me to maintain it. If you have any questions or comments email webmaster@weatherforyou.com

Copyright © 2014, WeatherForYou.com LLC. All rights reserved.